Flag for U.S.A. Weather past 2 weeks in Farmington, New Mexico, U.S.A.

Now
81 °F

Sunny.


Feels Like: 79 °F
Forecast: 58 / 77 °F
Wind: 14 mph from West

Location: Four Corners Regional Airport

Current Time: Aug 21, 2014 at 6:05:43 PM

Latest Report: Aug 21, 2014 at 4:53 PM


Visibility: 10 mi

Pressure: 29.95 "Hg

Humidity: 19%

Dew point: 35 °F

Location of FarmingtonLocation

Historic Weather in Farmington — Graph

°F

Farmington temperature yesterday

Maximum temperature yesterday: 84 °F (at 4:53 PM)
Minimum temperature yesterday: 60 °F (at 6:53 AM)
Average temperature yesterday: 72 °F

Past Weeks' High & Low Weather Summary

 TemperatureHumidityPressure
High93 °F (Aug 17, 4:53 PM)90% (Aug 13, 9:53 PM)30.22 "Hg (Aug 13, 9:53 PM)
Low53 °F (Aug 21, 6:53 AM)7% (Aug 8, 6:53 PM)29.77 "Hg (Aug 18, 5:53 PM)
Average75 °F37%29.97 "Hg
* Reported Aug 6 4:53 PM — Aug 21 4:53 PM, Farmington, Weather by CustomWeather, © 2014

Note: Actual official high and low records may vary slightly from our data, if they occured in-between our weather recording intervals... More about our weather records

Advertising

Farmington weather history for previous 24 hours

 ConditionsComfort  
Time TempWeatherWind HumidityBarometerVisibility
4:53 PM
Aug 21
81 °FSunny.14 mph19%29.95 "Hg10 mi
3:53 PM84 °FSunny.13 mph18%29.95 "Hg10 mi
2:53 PM84 °FSunny.8 mph18%29.96 "Hg10 mi
1:53 PM81 °FSunny.9 mph19%29.97 "Hg10 mi
12:53 PM81 °FSunny.8 mph21%29.98 "Hg10 mi
11:53 AM76 °FSunny.6 mph30%30.00 "Hg10 mi
10:53 AM74 °FSunny.No wind31%30.01 "Hg10 mi
9:53 AM68 °FSunny.7 mph39%30.02 "Hg10 mi
8:53 AM64 °FSunny.6 mph45%30.03 "Hg10 mi
7:53 AM60 °FSunny.No wind49%30.02 "Hg10 mi
6:53 AM53 °FClear.No wind59%30.01 "Hg10 mi
5:53 AM56 °FClear.No wind53%29.98 "Hg10 mi
4:53 AM55 °FClear.5 mph55%29.96 "Hg10 mi
3:53 AM57 °FClear.3 mph51%29.96 "Hg10 mi
2:53 AM61 °FClear.5 mph44%29.94 "Hg10 mi
1:53 AM62 °FClear.6 mph43%29.95 "Hg10 mi
12:53 AM63 °FClear.7 mph43%29.94 "Hg10 mi
11:53 PM
Aug 20
68 °FClear.3 mph33%29.92 "Hg10 mi
10:53 PM69 °FClear.No wind31%29.91 "Hg10 mi
9:53 PM71 °FClear.6 mph28%29.90 "Hg10 mi
8:53 PM74 °FSunny.8 mph26%29.88 "Hg10 mi
7:53 PM78 °FSunny.9 mph23%29.86 "Hg10 mi
6:53 PM81 °FSunny.12 mph20%29.85 "Hg10 mi
Weather by CustomWeather, © 2014

See weather overviewHow to use our weather pages